Location: Malvern Link
(52.1333°N, 2.3000°W)
Time: 09:12:07
(UTC+00:00)

DUCHIFAT 1 - Visible Passes

Search period start: 27 June 2022 00:00
Search period end: 07 July 2022 00:00
Orbit: 580 x 598 km, 98.0° (Epoch: 26 June)

Date Brightness Start Highest point End Pass type
(mag) Time Alt. Az. Time Alt. Az. Time Alt. Az.
27 Jun ? 01:55:47 10° NE 01:59:08 23° E 02:02:28 10° SE visible
28 Jun ? 02:03:15 10° NE 02:06:49 26° E 02:10:22 10° SSE visible
29 Jun ? 02:10:45 10° NNE 02:14:30 31° E 02:18:14 10° SSE visible
30 Jun ? 02:18:16 10° NNE 02:22:10 36° E 02:26:03 10° SSE visible
01 Jul ? 02:25:48 10° NNE 02:29:49 42° E 02:33:49 10° S visible
02 Jul ? 02:33:21 10° NNE 02:37:28 50° E 02:41:33 10° S visible
03 Jul ? 02:40:55 10° NNE 02:45:05 59° ESE 02:49:14 10° S visible
04 Jul ? 02:48:29 10° NNE 02:52:42 70° ESE 02:56:54 10° S visible
05 Jul ? 01:23:04 10° ENE 01:24:08 11° E 01:25:12 10° E visible
05 Jul ? 02:56:04 10° NNE 03:00:18 82° ESE 03:04:31 10° SSW visible
06 Jul ? 01:29:54 10° ENE 01:31:50 13° E 01:33:45 10° ESE visible
06 Jul ? 03:03:40 10° NNE 03:07:54 85° WNW 03:12:06 10° SSW visible
